Vorticity
8 -1 -6 10 13 11 20 10 9 15 11 -2 -1 1 7 12 -5 7 11 11 9 15 2 8 8 4 5
-9 4 40 20 23 12 13 15 13 3 1 3 10 16 6 3 14 10 7 8 10 6 7 6 7 11 9
46 22 13 9 11 13 8 7 4 4 8 9 6 10 10 5 8 8 11 10 7 7 6 9 7 7 4
17 -3 10 13 12 6 4 8 10 11 13 8 8 6 7 8 6 10 8 6 5 8 10 7 3 3 8
1 6 13 5 5 7 3 7 7 7 10 1 6 8 7 9 8 6 5 7 10 8 4 5 7 11 14
7 17 6 8 7 12 22 15 7 4 6 9 7 8 9 7 6 8 7 9 3 4 5 8 12 14 13
17 10 11 12 15 13 6 5 5 5 6 7 8 7 6 6 9 11 7 2 3 5 11 13 14 12 20
9 12 16 17 7 7 5 4 6 9 8 8 6 4 7 9 8 3 3 5 8 11 13 14 17 23 28
-6 1 11 12 7 5 6 8 8 9 10 6 6 9 12 7 5 4 6 13 12 13 14 21 26 22 21
4 15 6 7 6 7 10 9 7 5 6 9 13 9 6 5 6 5 8 8 11 14 23 28 21 16 18
9 8 6 7 10 9 8 7 6 9 10 7 7 4 4 5 14 13 11 10 19 27 25 17 16 14 12
6 6 11 12 10 8 8 8 9 7 9 7 5 6 8 12 14 9 12 24 24 23 15 16 12 11 13
7 11 10 10 8 6 6 8 10 8 8 6 6 8 13 7 12 19 26 29 17 15 15 12 12 13 15
10 11 6 4 8 12 9 7 9 10 8 7 9 8 8 16 25 25 24 18 12 14 12 11 16 20 19
6 8 12 7 7 7 8 7 9 9 10 7 9 9 20 30 26 17 14 10 12 12 11 17 28 23 22
7 5 7 6 9 4 8 11 8 9 8 7 14 21 29 22 17 11 10 11 11 14 19 22 30 24 19
2 6 7 7 3 8 8 7 4 7 13 18 22 26 21 15 14 8 11 10 15 23 21 26 31 24 15
Height
5724 5721 5718 5716 5711 5707 5703 5700 5697 5692 5688 5686 5682 5678 5674 5670 5664 5659 5653 5646 5640 5635 5630 5627 5622 5616 5613
5709 5709 5704 5700 5697 5693 5690 5685 5682 5679 5676 5671 5666 5661 5657 5651 5646 5640 5633 5627 5620 5613 5609 5605 5600 5594 5588
5694 5689 5688 5685 5682 5679 5676 5672 5669 5666 5660 5656 5652 5644 5640 5634 5626 5620 5615 5609 5603 5597 5590 5584 5576 5569 5561
5680 5678 5674 5671 5668 5666 5663 5659 5654 5651 5647 5643 5637 5629 5621 5615 5609 5604 5597 5590 5583 5576 5568 5562 5553 5545 5536
5667 5663 5661 5659 5657 5653 5651 5647 5641 5639 5634 5624 5621 5613 5606 5598 5591 5584 5577 5570 5562 5553 5546 5536 5527 5518 5509
5652 5651 5649 5646 5644 5641 5638 5634 5627 5622 5621 5610 5605 5599 5591 5583 5574 5565 5556 5548 5539 5530 5521 5511 5500 5490 5480
5640 5639 5637 5635 5632 5628 5624 5619 5613 5607 5604 5599 5591 5582 5572 5562 5553 5544 5535 5527 5514 5504 5494 5484 5474 5464 5452
5630 5628 5625 5622 5619 5614 5610 5605 5598 5590 5587 5583 5572 5565 5555 5542 5532 5522 5514 5503 5492 5481 5469 5458 5446 5436 5426
5616 5613 5610 5607 5604 5600 5595 5590 5585 5576 5568 5564 5555 5549 5539 5524 5512 5500 5488 5478 5468 5456 5443 5429 5418 5411 5405
5603 5599 5597 5594 5589 5583 5579 5575 5569 5562 5551 5549 5536 5527 5529 5512 5495 5481 5470 5455 5442 5430 5417 5404 5394 5389 5384
5589 5586 5583 5579 5574 5570 5565 5558 5551 5543 5534 5529 5521 5510 5500 5495 5484 5466 5452 5437 5421 5409 5398 5387 5378 5366 5364
5575 5573 5570 5565 5561 5555 5549 5541 5532 5525 5517 5506 5499 5488 5478 5469 5458 5444 5430 5416 5401 5392 5383 5374 5363 5352 5341
5564 5562 5558 5553 5546 5539 5532 5524 5514 5505 5497 5487 5478 5468 5455 5444 5433 5420 5408 5400 5383 5375 5368 5359 5348 5336 5330
5553 5551 5546 5540 5533 5526 5517 5508 5498 5486 5474 5466 5457 5445 5435 5417 5403 5395 5382 5375 5371 5361 5352 5344 5330 5317 5309
5543 5539 5533 5526 5517 5508 5501 5493 5483 5473 5461 5446 5436 5422 5407 5391 5383 5372 5366 5359 5348 5342 5332 5326 5314 5301 5294
5530 5524 5518 5510 5502 5493 5485 5477 5462 5456 5441 5428 5416 5405 5389 5373 5356 5356 5349 5342 5333 5322 5310 5304 5301 5289 5282
5515 5510 5504 5496 5485 5480 5469 5460 5447 5433 5418 5403 5394 5384 5377 5371 5358 5335 5335 5325 5316 5305 5294 5288 5284 5280 5274